Location: Newark
(42.8481°N, 0.4872°E)
Time: 03:36:10
(UTC+00:00)

SR - Pass Details

Date: 09 November 2020
Orbit: 579 x 876 km, 66.7° (Epoch: 26 November)

Event Time Altitude Azimuth Distance (km) Brightness Sun altitude
Rises 01:03:08 0° 266° (W) 2,812 - -58.9°
Reaches altitude 10° 01:06:36 10° 296° (WNW) 1,949 - -58.4°
Maximum altitude 01:08:31 13° 323° (NW) 1,807 - -58.2°
Drops below altitude 10° 01:10:29 10° 349° (N) 2,006 - -58.0°
Sets 01:14:11 0° 18° (NNE) 2,983 - -57.5°
